Year,Month,Day,Hour,Minute,Value (Times are PST for temperature in C)
2016,10,18,10,01,9.90
2016,10,18,10,02,9.90
2016,10,18,10,03,9.90
2016,10,18,10,04,10.00
2016,10,18,10,05,10.00
2016,10,18,10,06,10.00
2016,10,18,10,07,10.10
2016,10,18,10,08,10.10
2016,10,18,10,09,10.10
2016,10,18,10,10,10.10
2016,10,18,10,11,10.10
2016,10,18,10,12,10.20
2016,10,18,10,13,10.20
2016,10,18,10,14,10.20
2016,10,18,10,15,10.20
2016,10,18,10,16,10.30
2016,10,18,10,17,10.30
2016,10,18,10,18,10.30
2016,10,18,10,19,10.40
2016,10,18,10,20,10.40
2016,10,18,10,21,10.40
2016,10,18,10,22,10.40
2016,10,18,10,23,10.50
2016,10,18,10,24,10.50
2016,10,18,10,25,10.60
2016,10,18,10,26,10.60
2016,10,18,10,27,10.60
2016,10,18,10,28,10.60
2016,10,18,10,29,10.60
2016,10,18,10,30,10.60
2016,10,18,10,31,10.60
2016,10,18,10,32,10.60
2016,10,18,10,33,10.60
2016,10,18,10,34,10.60
2016,10,18,10,35,10.60
2016,10,18,10,36,10.60
2016,10,18,10,37,10.60
2016,10,18,12,52,10.70
2016,10,18,12,53,10.70
2016,10,18,12,54,10.80
2016,10,18,12,55,10.80
2016,10,18,12,56,10.80
2016,10,18,12,57,10.80
2016,10,18,12,58,10.80
2016,10,18,12,59,10.80
2016,10,18,13,00,10.90
2016,10,18,13,01,10.90
2016,10,18,13,02,11.00
2016,10,18,13,03,11.00
2016,10,18,13,04,11.10
2016,10,18,13,05,11.10
2016,10,18,13,06,11.10
2016,10,18,13,07,11.20
2016,10,18,13,08,11.20
2016,10,18,13,09,11.20
2016,10,18,13,10,11.30
2016,10,18,13,11,11.30
2016,10,18,13,12,11.30
2016,10,18,13,13,11.30
2016,10,18,13,14,11.40
2016,10,18,13,15,11.30
2016,10,18,13,16,11.30
2016,10,18,13,17,11.40
2016,10,18,13,18,11.40
2016,10,18,13,19,11.40
2016,10,18,13,20,11.40
2016,10,18,13,21,11.50
2016,10,18,13,22,11.50
2016,10,18,13,23,11.60
2016,10,18,13,24,11.60
2016,10,18,13,25,11.70
2016,10,18,13,26,11.70
2016,10,18,13,27,11.80
2016,10,18,13,28,11.90
2016,10,18,13,29,11.90
2016,10,18,13,30,12.00
2016,10,18,13,31,12.00
2016,10,18,13,32,12.00
2016,10,18,13,33,12.00
2016,10,18,13,34,12.10
2016,10,18,13,35,12.10
2016,10,18,13,36,12.10
2016,10,18,13,37,12.20
2016,10,18,13,38,12.20
2016,10,18,13,39,12.20
2016,10,18,13,40,12.20
2016,10,18,13,41,12.20
2016,10,18,13,42,12.20
2016,10,18,13,43,12.20
2016,10,18,13,44,12.20
2016,10,18,13,45,12.20
2016,10,18,13,46,12.20
2016,10,18,13,47,12.20
2016,10,18,13,48,12.20
2016,10,18,13,49,12.10
2016,10,18,13,50,12.10
2016,10,18,13,51,12.10
2016,10,18,13,52,12.20
2016,10,18,13,53,12.20
2016,10,18,13,54,12.20
2016,10,18,13,55,12.20
2016,10,18,13,56,12.30
2016,10,18,13,57,12.30
2016,10,18,13,58,12.40
2016,10,18,13,59,12.50
2016,10,18,14,00,12.40
2016,10,18,14,01,12.50
2016,10,18,14,02,12.60
2016,10,18,14,03,12.60
2016,10,18,14,04,12.60
2016,10,18,14,05,12.50
2016,10,18,14,06,12.50
2016,10,18,14,07,12.50
2016,10,18,14,08,12.40
2016,10,18,14,09,12.40
2016,10,18,14,10,12.40
2016,10,18,14,11,12.50
2016,10,18,14,12,12.50
2016,10,18,14,13,12.50
2016,10,18,14,14,12.50
2016,10,18,14,15,12.60
2016,10,18,14,16,12.60
2016,10,18,14,17,12.50
2016,10,18,14,18,12.50
2016,10,18,14,19,12.50
2016,10,18,14,20,12.40
2016,10,18,14,21,12.40
2016,10,18,14,22,12.40
2016,10,18,14,23,12.50
2016,10,18,14,24,12.50
2016,10,18,14,25,12.50
2016,10,18,14,26,12.50
2016,10,18,14,27,12.50
2016,10,18,14,28,12.50
2016,10,18,14,29,12.60
2016,10,18,14,30,12.60
2016,10,18,14,31,12.60
2016,10,18,14,32,12.70
2016,10,18,14,33,12.70
2016,10,18,14,34,12.80
2016,10,18,14,35,12.80
2016,10,18,14,36,12.80
2016,10,18,14,37,12.90
2016,10,18,14,38,12.90
2016,10,18,14,39,13.00
2016,10,18,14,40,13.10
2016,10,18,14,41,13.20
2016,10,18,14,42,13.20
2016,10,18,14,43,13.20
2016,10,18,14,44,13.30
2016,10,18,14,45,13.30
2016,10,18,14,46,13.30
2016,10,18,14,47,13.30
2016,10,18,14,48,13.20
2016,10,18,14,49,13.20
2016,10,18,14,50,13.20
2016,10,18,14,51,13.20
2016,10,18,14,52,13.20
2016,10,18,14,53,13.10
2016,10,18,14,54,13.10
2016,10,18,14,55,13.10
2016,10,18,14,56,13.10
2016,10,18,14,57,13.10
2016,10,18,14,58,13.10
2016,10,18,14,59,13.10
2016,10,18,15,00,13.10
2016,10,18,15,01,13.20
2016,10,18,15,02,13.20
2016,10,18,15,03,13.10
2016,10,18,15,04,13.10
2016,10,18,15,05,13.10
2016,10,18,15,06,13.10
2016,10,18,15,07,13.10
2016,10,18,15,08,13.10
2016,10,18,15,09,13.00
2016,10,18,15,10,13.00
2016,10,18,15,11,13.00
2016,10,18,15,12,12.90
2016,10,18,15,13,12.90
2016,10,18,15,14,12.90
2016,10,18,15,15,12.90
2016,10,18,15,16,12.90
2016,10,18,15,17,12.90
2016,10,18,15,18,12.80
2016,10,18,15,19,12.80
2016,10,18,15,20,12.80
2016,10,18,15,21,12.70
2016,10,18,15,22,12.70
2016,10,18,15,23,12.70
2016,10,18,15,24,12.70
2016,10,18,15,25,12.60
2016,10,18,15,26,12.60
2016,10,18,15,27,12.60
2016,10,18,15,28,12.50
2016,10,18,15,29,12.50
2016,10,18,15,30,12.40
2016,10,18,15,31,12.40
2016,10,18,15,32,12.40
2016,10,18,15,33,12.40
2016,10,18,15,34,12.40
2016,10,18,15,35,12.40
2016,10,18,15,36,12.40
2016,10,18,15,37,12.40
2016,10,18,15,38,12.40
2016,10,18,15,39,12.40
2016,10,18,15,40,12.40
2016,10,18,15,41,12.40
2016,10,18,15,42,12.40
2016,10,18,16,15,12.20
2016,10,18,16,16,12.20
2016,10,18,16,17,12.20
2016,10,18,16,18,12.20
2016,10,18,16,19,12.20
2016,10,18,16,20,12.20
2016,10,18,16,21,12.20
2016,10,18,16,22,12.20
2016,10,18,16,23,12.10
2016,10,18,16,24,12.10
2016,10,18,16,25,12.10
2016,10,18,16,26,12.10
2016,10,18,16,27,12.10
2016,10,18,16,28,12.10
2016,10,18,16,29,12.10
2016,10,18,16,30,12.10
2016,10,18,16,31,12.10
2016,10,18,16,32,12.10
2016,10,18,16,33,12.10
2016,10,18,16,34,12.10
2016,10,18,16,35,12.20
2016,10,18,16,36,12.20
2016,10,18,16,37,12.20
2016,10,18,16,38,12.20
2016,10,18,16,39,12.20
2016,10,18,16,40,12.30
2016,10,18,16,41,12.30
2016,10,18,16,42,12.30
2016,10,18,16,43,12.30
2016,10,18,16,44,12.30
2016,10,18,16,45,12.30
2016,10,18,16,46,12.30
2016,10,18,16,47,12.30
2016,10,18,16,48,12.30
2016,10,18,16,49,12.20
2016,10,18,16,50,12.20
2016,10,18,16,51,12.20
2016,10,18,16,52,12.20
2016,10,18,16,53,12.20
2016,10,18,16,54,12.20
2016,10,18,16,55,12.10
2016,10,18,16,56,12.10
2016,10,18,16,57,12.10
2016,10,18,16,58,12.10
2016,10,18,16,59,12.10
2016,10,18,17,00,12.10
2016,10,18,17,01,12.10
2016,10,18,17,02,12.10
2016,10,18,17,03,12.10
2016,10,18,17,04,12.10
2016,10,18,17,05,12.10
2016,10,18,17,06,12.10
2016,10,18,17,07,12.10
